When you browse on this site, cookies collect data to enhance your experience and personalize the content and advertising you see.
Visit our Privacy Policy to learn more. By continuing to use the site, you agree to this use of cookies and data.
EN

Hourly Weather Iquitos

Today, 12 July, Sunday

Time Temperature Precipitation Wind Pressure Humidity
00:00 +22°C° 0 mm 0 mps 751 mmHg 97%
01:00 +22°C° 0 mm 0 mps 751 mmHg 98%
02:00 +21°C° 0 mm 0 mps 751 mmHg 98%
03:00 +21°C° 0 mm 0 mps 751 mmHg 98%
04:00 +21°C° 0 mm 0 mps 751 mmHg 98%
05:00 +22°C° 0 mm 0 mps 751 mmHg 97%
06:00 +22°C° 0 mm 0 mps 751 mmHg 97%
07:00 +22°C° 0 mm 0 mps 752 mmHg 96%
08:00 +25°C° 0 mm 0 mps 752 mmHg 84%
09:00 +28°C° 0 mm 0 mps 752 mmHg 72%
10:00 +31°C° 0 mm 0 mps 753 mmHg 61%
11:00 +32°C° 0.1 mm 0 mps 752 mmHg 57%
12:00 +33°C° 0.1 mm 0 mps 751 mmHg 54%
13:00 +34°C° 0.1 mm 0 mps 750 mmHg 50%
14:00 +31°C° 1 mm 0 mps 750 mmHg 63%
15:00 +31°C° 1 mm 1 mps 749 mmHg 77%
16:00 +29°C° 1 mm 1 mps 748 mmHg 90%
17:00 +28°C° 0.3 mm 1 mps 749 mmHg 92%
18:00 +25°C° 0.3 mm 0 mps 750 mmHg 93%
19:00 +24°C° 0.3 mm 0 mps 750 mmHg 95%
20:00 +24°C° 1.1 mm 0 mps 751 mmHg 95%
21:00 +23°C° 1.1 mm 0 mps 751 mmHg 96%
22:00 +23°C° 1.1 mm 0 mps 752 mmHg 97%
23:00 +23°C° 1.3 mm 0 mps 752 mmHg 97%

Tomorrow, 13 July, Monday

Time Temperature Precipitation Wind Pressure Humidity
00:00 +23°C° 1.3 mm 0 mps 751 mmHg 98%
01:00 +22°C° 1.3 mm 0 mps 751 mmHg 98%
02:00 +22°C° 0.6 mm 0 mps 751 mmHg 98%
03:00 +24°C° 0.6 mm 1 mps 751 mmHg 99%
04:00 +24°C° 0.6 mm 1 mps 751 mmHg 99%
05:00 +24°C° 1 mm 1 mps 751 mmHg 99%
06:00 +24°C° 1 mm 1 mps 752 mmHg 98%
07:00 +22°C° 1 mm 0 mps 752 mmHg 98%
08:00 +23°C° 0.1 mm 0 mps 753 mmHg 94%
09:00 +24°C° 0.1 mm 0 mps 753 mmHg 90%
10:00 +25°C° 0.1 mm 0 mps 753 mmHg 85%
11:00 +28°C° 0.6 mm 1 mps 752 mmHg 82%
12:00 +29°C° 0.6 mm 1 mps 752 mmHg 79%
13:00 +30°C° 0.6 mm 1 mps 751 mmHg 76%
14:00 +30°C° 0.4 mm 1 mps 750 mmHg 73%
15:00 +31°C° 0.4 mm 1 mps 750 mmHg 71%
16:00 +29°C° 0.4 mm 0 mps 749 mmHg 68%
17:00 +27°C° 1.3 mm 0 mps 750 mmHg 77%
18:00 +25°C° 1.3 mm 0 mps 750 mmHg 86%
19:00 +23°C° 1.3 mm 0 mps 751 mmHg 95%
20:00 +23°C° 0.3 mm 0 mps 751 mmHg 96%
21:00 +23°C° 0.3 mm 0 mps 752 mmHg 96%
22:00 +23°C° 0.3 mm 0 mps 752 mmHg 96%
23:00 +23°C° 0.3 mm 0 mps 752 mmHg 97%

Day after tomorrow, 14 July, Tuesday

Time Temperature Precipitation Wind Pressure Humidity
00:00 +22°C° 0.3 mm 0 mps 752 mmHg 97%
01:00 +22°C° 0.3 mm 0 mps 752 mmHg 98%
02:00 +22°C° 0.9 mm 0 mps 751 mmHg 98%
03:00 +22°C° 0.9 mm 0 mps 751 mmHg 98%
04:00 +22°C° 0.9 mm 0 mps 751 mmHg 99%
05:00 +22°C° 0.1 mm 0 mps 752 mmHg 98%
06:00 +22°C° 0.1 mm 0 mps 752 mmHg 98%
07:00 +22°C° 0.1 mm 0 mps 753 mmHg 98%
08:00 +24°C° 0.1 mm 0 mps 753 mmHg 90%
09:00 +26°C° 0.1 mm 0 mps 753 mmHg 82%
10:00 +29°C° 0.1 mm 0 mps 753 mmHg 74%
11:00 +30°C° 0.2 mm 0 mps 753 mmHg 67%
12:00 +31°C° 0.2 mm 0 mps 752 mmHg 59%
13:00 +34°C° 0.2 mm 1 mps 751 mmHg 52%
14:00 +32°C° 0.1 mm 0 mps 750 mmHg 56%
15:00 +31°C° 0.1 mm 0 mps 750 mmHg 59%
16:00 +31°C° 0.1 mm 0 mps 749 mmHg 63%
17:00 +28°C° 0.7 mm 0 mps 750 mmHg 73%
18:00 +26°C° 0.7 mm 0 mps 750 mmHg 83%
19:00 +23°C° 0.7 mm 0 mps 751 mmHg 94%
20:00 +23°C° 0.3 mm 0 mps 751 mmHg 95%
21:00 +23°C° 0.3 mm 0 mps 752 mmHg 96%
22:00 +22°C° 0.3 mm 0 mps 752 mmHg 96%
23:00 +22°C° 0.1 mm 0 mps 752 mmHg 97%

15 July, Wednesday

Time Temperature Precipitation Wind Pressure Humidity
00:00 +22°C° 0.1 mm 0 mps 752 mmHg 97%
01:00 +22°C° 0.1 mm 0 mps 752 mmHg 97%
02:00 +22°C° 0 mm 0 mps 751 mmHg 98%
03:00 +22°C° 0 mm 0 mps 751 mmHg 98%
04:00 +21°C° 0 mm 0 mps 751 mmHg 98%
05:00 +22°C° 0 mm 0 mps 752 mmHg 98%
06:00 +22°C° 0 mm 0 mps 752 mmHg 97%
07:00 +22°C° 0 mm 0 mps 752 mmHg 97%
08:00 +24°C° 0.3 mm 0 mps 753 mmHg 90%
09:00 +26°C° 0.3 mm 0 mps 753 mmHg 84%
10:00 +28°C° 0.3 mm 0 mps 753 mmHg 77%
11:00 +30°C° 0.5 mm 0 mps 752 mmHg 70%
12:00 +31°C° 0.5 mm 0 mps 751 mmHg 62%
13:00 +32°C° 0.5 mm 0 mps 751 mmHg 55%
14:00 +31°C° 0.2 mm 0 mps 750 mmHg 61%
15:00 +32°C° 0.2 mm 1 mps 749 mmHg 67%
16:00 +31°C° 0.2 mm 1 mps 749 mmHg 73%
17:00 +29°C° 0.3 mm 1 mps 749 mmHg 80%
18:00 +27°C° 0.3 mm 1 mps 750 mmHg 87%
19:00 +25°C° 0.3 mm 1 mps 750 mmHg 93%
20:00 +25°C° 0.4 mm 1 mps 751 mmHg 95%
21:00 +22°C° 0.4 mm 0 mps 752 mmHg 96%
22:00 +22°C° 0.4 mm 0 mps 752 mmHg 97%
23:00 +22°C° 0 mm 0 mps 752 mmHg 97%

16 July, Thursday

Time Temperature Precipitation Wind Pressure Humidity
00:00 +22°C° 0 mm 0 mps 752 mmHg 98%
01:00 +21°C° 0 mm 0 mps 752 mmHg 98%
02:00 +21°C° 0 mm 0 mps 752 mmHg 98%
03:00 +21°C° 0 mm 0 mps 751 mmHg 98%
04:00 +21°C° 0 mm 0 mps 751 mmHg 98%
05:00 +21°C° 0 mm 0 mps 752 mmHg 97%
06:00 +22°C° 0 mm 0 mps 752 mmHg 97%
07:00 +22°C° 0 mm 0 mps 753 mmHg 96%
08:00 +25°C° 0 mm 0 mps 753 mmHg 84%
09:00 +27°C° 0 mm 0 mps 753 mmHg 72%
10:00 +32°C° 0 mm 1 mps 753 mmHg 61%
11:00 +33°C° 0.1 mm 1 mps 752 mmHg 58%
12:00 +33°C° 0.1 mm 1 mps 752 mmHg 55%
13:00 +34°C° 0.1 mm 1 mps 751 mmHg 52%
14:00 +33°C° 0.2 mm 1 mps 750 mmHg 56%
15:00 +33°C° 0.2 mm 1 mps 750 mmHg 60%
16:00 +32°C° 0.2 mm 1 mps 749 mmHg 64%
17:00 +30°C° 0.1 mm 1 mps 750 mmHg 71%
18:00 +26°C° 0.1 mm 0 mps 750 mmHg 78%
19:00 +24°C° 0.1 mm 0 mps 750 mmHg 85%
20:00 +23°C° 0 mm 0 mps 751 mmHg 87%
21:00 +23°C° 0 mm 0 mps 751 mmHg 88%
22:00 +23°C° 0 mm 0 mps 752 mmHg 89%
23:00 +22°C° 0.2 mm 0 mps 752 mmHg 91%

17 July, Friday

Time Temperature Precipitation Wind Pressure Humidity
00:00 +22°C° 0.2 mm 0 mps 751 mmHg 93%
01:00 +22°C° 0.2 mm 0 mps 751 mmHg 94%
02:00 +22°C° 0.3 mm 0 mps 751 mmHg 95%
03:00 +21°C° 0.3 mm 0 mps 751 mmHg 96%
04:00 +21°C° 0.3 mm 0 mps 751 mmHg 96%
05:00 +21°C° 0 mm 0 mps 751 mmHg 96%
06:00 +22°C° 0 mm 0 mps 752 mmHg 95%
07:00 +22°C° 0 mm 0 mps 752 mmHg 95%
08:00 +24°C° 0.2 mm 0 mps 752 mmHg 86%
09:00 +27°C° 0.2 mm 0 mps 753 mmHg 77%
10:00 +31°C° 0.2 mm 1 mps 753 mmHg 68%
11:00 +32°C° 0.8 mm 1 mps 752 mmHg 63%
12:00 +33°C° 0.8 mm 1 mps 751 mmHg 59%
13:00 +33°C° 0.8 mm 1 mps 751 mmHg 54%
14:00 +33°C° 0 mm 1 mps 750 mmHg 53%
15:00 +33°C° 0 mm 1 mps 750 mmHg 52%
16:00 +31°C° 0 mm 0 mps 749 mmHg 51%
17:00 +29°C° 0.1 mm 0 mps 749 mmHg 61%
18:00 +27°C° 0.1 mm 0 mps 749 mmHg 71%
19:00 +24°C° 0.1 mm 0 mps 750 mmHg 81%
20:00 +24°C° 0.1 mm 0 mps 750 mmHg 84%
21:00 +23°C° 0.1 mm 0 mps 751 mmHg 88%
22:00 +22°C° 0.1 mm 0 mps 751 mmHg 91%
23:00 +22°C° 0 mm 0 mps 751 mmHg 92%
Show more